Other Surface Observations
Issued by NWS Tucson, AZ

Home | Current Version | Previous Version | Text Only | Print | Product List | Glossary On
Versions: 1 2 3 4 5 6 7 8 9 10 11 12 13 14 15 16 17 18 19 20 21 22 23 24 25 26 27 28 29 30 31 32 33 34 35 36 37 38 39 40 41 42 43 44 45 46 47 48 49 50
000
SXUS55 KTWC 190715
OSOTWC

WEATHER ROUNDUP FOR SOUTHEAST ARIZONA
NATIONAL WEATHER SERVICE TUCSON AZ
1215 AM MST SAT APR 19 2014

AZZ504>506-514-190815-
LOCATION       SKY/WX    TMP DP  RH WIND       PRES   REMARKS
TUCSON         PTCLDY    67  44  43 SE10      29.97R
DAVIS-MONTHAN  MOCLDY    65  46  49 E5        29.95S
CHILDRENS PARK N/A       65 N/A N/A SE4               PIMA CO DEQ
ALVERNON/22ND  N/A       66 N/A N/A SE6               PIMA CO DEQ
CHERRY/GLENN   N/A      N/A N/A N/A N/A               PIMA CO DEQ
TANGERINE      N/A       64 N/A N/A SE3               PIMA CO DEQ
CONTL RANCH    N/A       69  46  43 S7                PIMA CO DEQ
GRANT/1ST      N/A       66  46  48 SE5               PIMA CO DEQ
CRAYCROFT/22ND N/A       64  46  52 SE7               PIMA CO DEQ
GOLFLINKS/KOLB N/A      N/A N/A N/A N/A               PIMA CO DEQ
AJO/12TH       N/A       63  49  61 S5                PIMA CO DEQ
SAGUARO EAST   N/A       64  47  54 SE2               PIMA CO DEQ
FAIRGROUNDS    N/A       63 N/A N/A SE14              PIMA CO DEQ
SAGUARO        N/A       62  40  44 E2                *SABINO CYN
SAN CARLOS     N/A       60  42  52 CALM              *SAN CARLOS
GREEN VALLEY   N/A       60  44  56 SW4               PIMA CO DEQ
HORSE CAMP CYN N/A       58  43  57 E14G20            *ARAVAIPA CYN
RINCON MTNS    N/A       43  33  68 CALM              *NR MANNING CAMP
$$

AZZ509>511-190815-
LOCATION       SKY/WX    TMP DP  RH WIND       PRES   REMARKS
SAFFORD        PTCLDY    57  46  66 E7        29.99F
STRAY HORSE    N/A       44  31  61 N2                *
TRAIL CABIN    N/A       46  35  65 SE3               *N OF GRANVILLE
BLACK HILLS    N/A       56  42  59 SE2               *N OF FT THOMAS
DRY LAKE       N/A       44  35  70 SE6G10            *NATANES MTNS
NOON CREEK     N/A       51  40  66 SW6G10            *PINALENO MTNS
COLUMBINE      N/A       38  31  77 S5G14             *PINALENO MTNS
GUTHRIE        N/A       52  36  55 E7G14             *SW OF GUTHRIE
$$

AZZ502-503-513-190815-
LOCATION       SKY/WX    TMP DP  RH WIND       PRES   REMARKS
NOGALES        MOCLDY    57  42  57 NE8       30.00S
SELLS          N/A       67  38  34 CALM              *
SASABE         N/A       55  31  40 SW6               *ALTAR VLY
HOPKINS        N/A       50  33  52 S6G14             *SANTA RITA MTNS
CARR CYN       N/A       48  41  77 SW2               *W OF HEREFORD
$$

AZZ507-508-512-190815-
LOCATION       SKY/WX    TMP DP  RH WIND       PRES   REMARKS
SIERRA VISTA   MOCLDY    55  46  71 CALM      30.05S
DOUGLAS        CLOUDY    51  48  89 NE7       30.04S
EMPIRE MTNS    N/A       48  44  86 W2                *LAS CIENEGAS NCA
MULESHOE RANCH N/A       55  40  57 SE2               *PRESERVE
HEADQUARTERS   N/A       52  47  83 CALM              *CHIRICAHUA MTNS
$$

.............................NOTES.............................
THIS IS AN AUTOMATED COLLECTIVE WITH MINIMAL QUALITY CONTROL.
PIMA CO DEQ SITES HAVE NONSTANDARD WIND SENSOR HEIGHTS.
PIMA CO DEQ SITES DO NOT REPORT WIND GUSTS.
* INDICATES WIND SENSORS LOCATED AT 20 FEET INSTEAD OF 33 FEET.
..............................KEY..............................
SKY/WX - SKY CONDITION/WEATHER
TMP    - TEMPERATURE IN FAHRENHEIT
DP     - DEWPOINT IN FAHRENHEIT
RH     - RELATIVE HUMIDITY IN PERCENT
WIND   - DIRECTION AND SPEED IN MILES PER HOUR (MPH)
VRB    - VARIABLE WIND DIRECTION
PRES   - MEAN SEA LEVEL PRESSURE IN INCHES OF MERCURY
         F - FALLING PRESSURE   R - RISING PRESSURE
         S - STEADY PRESSURE
VSB    - VISIBILITY IN MILES
HX     - HEAT INDEX IN FAHRENHEIT
WCI    - WIND CHILL INDEX IN FAHRENHEIT
N/A    - NOT AVAILABLE
AFB    - AIR FORCE BASE
         DAVIS-MONTHAN IS DAVIS-MONTHAN AIR FORCE BASE
CYN    - CANYON
MTNS   - MOUNTAINS
NCA    - NATIONAL CONSERVATION AREA
NR     - NEAR
VLY    - VALLEY
CONTL  - CONTINENTAL
PIMA CO DEQ - PIMA COUNTY DEPT OF ENVIRONMENTAL QUALITY



USA.gov is the U.S. government's official web portal to all federal, state and local government web resources and services.